{"data":{"norad_id":54096,"epoch":"2026-05-24T23:25:14.949408Z","epoch_age_seconds":87200,"freshness":"FRESH","line1":"1 54096U 22136AX  26144.97586747 -.00002357  00000+0 -13020-3 0  9995","line2":"2 54096  53.2158 351.4488 0001308  80.5380 279.5760 15.08804619198500","mean_motion":15.08804619,"eccentricity":0.0001308,"inclination_deg":53.2158,"raan_deg":351.4488,"arg_perigee_deg":80.538,"mean_anomaly_deg":279.576,"bstar":-0.0001302,"rev_number":19850,"period_min":95.4397926588,"perigee_km":538.94666373944,"apogee_km":540.75640954062,"semimajor_km":6917.98853664,"source":"CELESTRAK","updated_at":"2026-05-25T13:38:17.656538Z"}}